User: anonymous   Login
Location: Asheville, NC
(35.6000°N, 82.5500°W)
Time: 21:33:21
(UTC-04:00)
Language:

KKS-1 - Orbit

View from above orbital plane
View from above orbital plane
View from above satellite
View from above satellite

Ground track
Ground track

The orbit data is extracted from the following two-line orbital elements,

1 33499U 09002H   18197.61349966 +.00000051 +00000-0 +15677-4 0  9995
2 33499 098.3570 020.3359 0008876 191.3251 168.7759 14.75344510509095
Epoch (UTC): 16 July 2018 14:43:26
Eccentricity: 0.0008876
inclination: 98.3570°
perigee height: 638 km
apogee height: 650 km
right ascension of ascending node: 20.3359°
argument of perigee: 191.3251°
revolutions per day: 14.75344510
mean anomaly at epoch: 168.7759°
orbit number at epoch: 50909

The dashed part of the orbit path shows where the satellite is in the earth's shadow,  

DLR